Home > Weather > Lillehammer > Past weeks

Flag for Norway Past Weather in Lillehammer, Norway — Yesterday and Last 2 Weeks

Now
56 °F

Cool.


Feels Like: 56 °F
Forecast: 54 / 65 °F
Wind: 1 mph from Southeast

Location: Lillehammer-Saetherengen

Current Time: Aug 25, 2016 at 4:54:38 AM

Latest Report: Aug 25, 2016 at 4:00 AM


Visibility: N/A

Pressure: 30.09 "Hg

Humidity: 94%

Dew Point: 54 °F

Location of LillehammerLocation

Past Weather in Lillehammer — Graph

°F

Lillehammer Temperature Yesterday

Maximum temperature yesterday: 65 °F (at 3:00 PM)
Minimum temperature yesterday: 53 °F (at 6:00 AM)
Average temperature yesterday: 59 °F

High & Low Weather Summary for the Past Weeks

 TemperatureHumidityPressure
High77 °F (Aug 17, 5:00 PM)96% (Aug 20, 6:00 AM)30.22 "Hg (Aug 20, 6:00 AM)
Low39 °F (Aug 11, 6:00 AM)21% (Aug 17, 5:00 PM)29.50 "Hg (Aug 12, 11:00 PM)
Average58 °F70%29.95 "Hg
* Reported Aug 10 3:00 AM — Aug 25 3:00 AM, Lillehammer, Weather by CustomWeather, © 2016

Note: Actual official high and low records may vary slightly from our data, if they occured in-between our weather recording intervals... More about our weather records

Advertising

Lillehammer Weather History for the Previous 24 Hours

Scroll right to see more
 ConditionsComfort  
Time TempWeatherWind HumidityBarometerVisibility
3:00 AM
Thu, Aug 25
59 °FCool.1 mph93%30.08 "HgN/A
2:00 AM60 °FCool.2 mph93%30.08 "HgN/A
1:00 AM60 °FCool.2 mph92%30.07 "HgN/A
12:00 AM60 °FCool.2 mph91%30.07 "HgN/A
11:00 PM
Wed, Aug 24
59 °FCool.3 mph93%30.08 "HgN/A
10:00 PM60 °FCool.3 mph91%30.08 "HgN/A
9:00 PM60 °FCool.1 mph89%30.09 "HgN/A
8:00 PM60 °FCool.5 mph86%30.08 "HgN/A
7:00 PM60 °FCool.3 mph88%30.09 "HgN/A
6:00 PM62 °FCool.3 mph76%30.10 "HgN/A
5:00 PM63 °FMild.3 mph72%30.11 "HgN/A
4:00 PM64 °FMild.3 mph70%30.12 "HgN/A
3:00 PM65 °FMild.5 mph69%30.13 "HgN/A
2:00 PM64 °FMild.5 mph71%30.14 "HgN/A
1:00 PM63 °FMild.2 mph76%30.16 "HgN/A
12:00 PM61 °FCool.3 mph80%30.18 "HgN/A
11:00 AM59 °FCool.3 mph85%30.19 "HgN/A
10:00 AM58 °FCool.3 mph87%30.21 "HgN/A
9:00 AM58 °FCool.2 mph88%30.22 "HgN/A
8:00 AM56 °FCool.1 mph87%30.22 "HgN/A
7:00 AM56 °FCool.1 mph86%30.22 "HgN/A
6:00 AM53 °FCool.1 mph90%30.22 "HgN/A
5:00 AM54 °FCool.1 mph90%30.22 "HgN/A
4:00 AM55 °FCool.No wind87%30.22 "HgN/A
Weather by CustomWeather, © 2016

See weather overviewHow to use our weather pages